Weather in Tolon

Russia / Sakha (Yakutia) Republic     59°27′27″N   111°32′20″E
temp.,
°C
wind,
m/s
gust,
m/s
humid.,
%
clouds,
%
prec.,
mm/h
press.,
hPa
HPBL,
m
19 april, mon
mon1900:00−16sw119794 0.0 10259
03:00−17ssw119894 0.0 102610
06:00−19sse119978 0.0 102610
09:00−7sse1387100 0.0 1024201
12:00−3s347497 0.0 10211119
15:00−1sse4562100 0.1 10181652
18:00−1se4669100 0.1 10161452
21:00−5ese51379100 0.1 1013426
20 april, tue
tue2000:00−6e51476100 0.0 1008388
03:00−7ese31185100 0.2 1004341
06:00−4s31096100 2.3 1003702
09:00−6sw61088100 2.7 10081169
12:00−5sw6980100 0.5 10111469
15:00−4wsw6967100 0.6 10121970
18:00−3wsw4764100 0.2 10131543
21:00−8s1189100 0.4 101410
21 april, wed
wed2100:00−7ssw2796100 0.8 1014329
03:00−15sw229896 1.0 101710
06:00−12se1197100 0.1 101718
09:00−6sw2691100 1.0 1016595
12:00−4wsw3575100 0.8 10171318
15:00−2w3571100 1.4 10181255
18:00−3nw3468100 0.6 10201144
21:00−8nw1190100 0.7 102410
22 april, thu
thu2200:00−15wnw11945 0.0 10279
03:00−17wnw11965 0.0 10309
06:00−18wnw11985 0.0 10339
09:00−7nw128411 0.0 1034217
12:00−3nw2271100 0.1 10341224
15:00−1wnw2360100 0.2 10351579
18:00−1wnw235978 0.1 10351285
21:00−8w11885 0.3 103810
23 april, fri
fri2300:00−12sw119125 0.0 10409
03:00−13sw11965 0.0 104111
06:00−14wsw229729 0.0 104214
09:00−4wsw268042 0.0 1041255
12:000w5868100 0.0 10401578
15:00+1w597499 0.1 10401457
18:00+1w497896 0.1 10401174
21:00−1w3886100 0.2 1042266